Location: San Pelegr�n
(42.1868°N, 0.0079°E)
Time: 12:57:50
(UTC+00:00)

SL-16 R/B - Pass Details

Date: 24 January 2020
Orbit: 841 x 848 km, 71.0° (Epoch: 22 February)

Event Time Altitude Azimuth Distance (km) Brightness Sun altitude
Rises 19:05:51 0° 331° (NNW) 3,415 5.7 -22.6°
Reaches altitude 10° 19:08:21 10° 326° (NNW) 2,475 5.0 -23.0°
Maximum altitude 19:13:50 52° 252° (WSW) 1,041 3.0 -24.0°
Drops below altitude 10° 19:19:17 10° 177° (S) 2,454 4.6 -25.0°
Sets 19:21:46 0° 172° (S) 3,384 5.3 -25.5°
